Overview Statistics Trail Chart Weather Telemetry Raw packets
 

This is the latest recevied weather packets stored in our database for station/object VK4TOM-13. If no packets are shown the sender has not sent any weather packets the latest 10 day(s).

<< 6 7 8 9 10 11 12 >>
Time Temp. Humidity Pressure Rain* Wind** Luminosity Snow
1788521470 20° C 70% 1020 hPa 0 mm - - -
1788520869 20° C 70% 1019.9 hPa 0 mm - - -
1788520268 20.56° C 70% 1019.8 hPa 0 mm - - -
1788519666 20.56° C 70% 1019.7 hPa 0 mm - - -
1788519065 21.11° C 70% 1019.6 hPa 0 mm - - -
1788518464 21.11° C 70% 1019.6 hPa 0 mm - - -
1788517864 21.11° C 70% 1019.5 hPa 0 mm - - -
1788517262 21.11° C 70% 1019.3 hPa 0 mm - - -
1788516661 21.67° C 70% 1019.1 hPa 0 mm - - -
1788516060 21.67° C 70% 1019.1 hPa 0 mm - - -
1788515459 22.22° C 70% 1018.8 hPa 0 mm - - -
1788514858 22.22° C 70% 1018.7 hPa 0 mm - - -
1788514257 22.78° C 70% 1018.4 hPa 0 mm - - -
1788513656 23.33° C 70% 1018.3 hPa 0 mm - - -
1788513055 23.89° C 70% 1018.1 hPa 0 mm - - -
1788512454 24.44° C 70% 1018.1 hPa 0 mm - - -
1788511853 25° C 70% 1017.9 hPa 0 mm - - -
1788510651 26.11° C 70% 1017.6 hPa 0 mm - - -
1788510075 26.67° C 64% 1017.3 hPa 0 mm - - -
1788509448 27.22° C 46% 1017.3 hPa 0 mm - - -
1788508847 27.78° C 40% 1017.3 hPa 0 mm - - -
1788508246 28.33° C 37% 1017.1 hPa 0 mm - - -
1788507645 29.44° C 33% 1017 hPa 0 mm - - -
1788507044 30° C 30% 1017 hPa 0 mm - - -
1788506443 30.56° C 28% 1016.8 hPa 0 mm - - -

* Rain since midnight (hover to see other rain measurements)
** Current wind speed in m/s (hover to see current wind gust speed)